M I D A S
Marine Information and Data Acquisition System
Tripno 1708 of the Zeeleeuw from 2009-06-11 07:40:00 to 2009-06-12 14:09:40
Back to CruiseResearch ActivitiesStationsMapUnderway DataData graphs

EquipmentUnitsComment
TimeDGPSUTC
LatitudeDGPSDM.mWGS84
LongitudeDGPSDM.mWGS84
TemperatureSBE03/SBE38deg celciusITS90
ConductivitySBE21S/mITS90
SalinitySBE21 Practical Salinity Units
ChlorophylAChelsea fluorimeterg/lCalibrated in Aceton
Missing or incorrect values are displayed as -999
Sea surface data collected by the RV Zeeleeuw from 2009-06-11 07:40:00 to 2009-06-12 14:09:40
                                                                                    Next 1000 lines
Time Latitude Longitude Temperature Conductivity Salinity ChlorophylA
2009-06-11 07:40:20 51°13.598 2°56.09 -999 -999 -999 -999
2009-06-11 07:40:30 51°13.6 2°56.084 -999 -999 -999 -999
2009-06-11 07:40:40 51°13.603 2°56.075 -999 -999 -999 -999
2009-06-11 07:40:50 51°13.606 2°56.066 -999 -999 -999 -999
2009-06-11 07:41:00 51°13.61 2°56.055 -999 -999 -999 -999
2009-06-11 07:41:10 51°13.613 2°56.044 -999 -999 -999 -999
2009-06-11 07:41:20 51°13.617 2°56.032 -999 -999 -999 -999
2009-06-11 07:41:30 51°13.621 2°56.021 -999 -999 -999 -999
2009-06-11 07:41:40 51°13.625 2°56.009 -999 -999 -999 -999
2009-06-11 07:41:50 51°13.63 2°55.997 -999 -999 -999 -999
2009-06-11 07:42:00 51°13.634 2°55.985 -999 -999 -999 -999
2009-06-11 07:42:10 51°13.638 2°55.973 -999 -999 -999 -999
2009-06-11 07:42:20 51°13.643 2°55.96 -999 -999 -999 -999
2009-06-11 07:42:30 51°13.647 2°55.947 -999 -999 -999 -999
2009-06-11 07:42:40 51°13.652 2°55.934 -999 -999 -999 -999
2009-06-11 07:42:50 51°13.656 2°55.92 -999 -999 -999 -999
2009-06-11 07:43:00 51°13.661 2°55.905 -999 -999 -999 -999
2009-06-11 07:43:10 51°13.666 2°55.889 -999 -999 -999 -999
2009-06-11 07:43:20 51°13.671 2°55.874 -999 -999 -999 -999
2009-06-11 07:43:30 51°13.676 2°55.859 -999 -999 -999 -999
2009-06-11 07:43:40 51°13.681 2°55.844 -999 -999 -999 -999
2009-06-11 07:43:50 51°13.686 2°55.829 -999 -999 -999 -999
2009-06-11 07:44:00 51°13.691 2°55.815 -999 -999 -999 -999
2009-06-11 07:44:10 51°13.695 2°55.801 -999 -999 -999 -999
2009-06-11 07:44:20 51°13.699 2°55.788 -999 -999 -999 -999
2009-06-11 07:44:30 51°13.703 2°55.775 -999 -999 -999 -999
2009-06-11 07:44:40 51°13.706 2°55.763 -999 -999 -999 -999
2009-06-11 07:44:50 51°13.709 2°55.752 -999 -999 -999 -999
2009-06-11 07:45:00 51°13.711 2°55.743 -999 -999 -999 -999
2009-06-11 07:45:10 51°13.712 2°55.739 -999 -999 -999 -999
2009-06-11 07:45:20 51°13.713 2°55.739 -999 -999 -999 -999
2009-06-11 07:45:30 51°13.714 2°55.74 -999 -999 -999 -999
2009-06-11 07:45:40 51°13.716 2°55.74 -999 -999 -999 -999
2009-06-11 07:45:50 51°13.716 2°55.737 -999 -999 -999 -999
2009-06-11 07:46:00 51°13.715 2°55.732 -999 -999 -999 -999
2009-06-11 07:46:10 51°13.714 2°55.727 -999 -999 -999 -999
2009-06-11 07:46:20 51°13.713 2°55.723 -999 -999 -999 -999
2009-06-11 07:46:30 51°13.714 2°55.721 -999 -999 -999 -999
2009-06-11 07:46:40 51°13.716 2°55.721 -999 -999 -999 -999
2009-06-11 07:46:50 51°13.718 2°55.722 -999 -999 -999 -999
2009-06-11 07:47:00 51°13.722 2°55.723 -999 -999 -999 -999
2009-06-11 07:47:10 51°13.727 2°55.722 -999 -999 -999 -999
2009-06-11 07:47:20 51°13.733 2°55.72 -999 -999 -999 -999
2009-06-11 07:47:30 51°13.739 2°55.716 -999 -999 -999 -999
2009-06-11 07:47:40 51°13.746 2°55.71 -999 -999 -999 -999
2009-06-11 07:47:50 51°13.756 2°55.7 -999 -999 -999 -999
2009-06-11 07:48:00 51°13.766 2°55.69 -999 -999 -999 -999
2009-06-11 07:48:10 51°13.779 2°55.678 -999 -999 -999 -999
2009-06-11 07:48:20 51°13.793 2°55.665 -999 -999 -999 -999
2009-06-11 07:48:30 51°13.809 2°55.652 -999 -999 -999 -999
2009-06-11 07:48:40 51°13.826 2°55.639 -999 -999 -999 -999
2009-06-11 07:48:50 51°13.843 2°55.625 -999 -999 -999 -999
2009-06-11 07:49:00 51°13.862 2°55.611 -999 -999 -999 -999
2009-06-11 07:49:10 51°13.88 2°55.596 -999 -999 -999 -999
2009-06-11 07:49:20 51°13.899 2°55.582 -999 -999 -999 -999
2009-06-11 07:49:30 51°13.919 2°55.567 -999 -999 -999 -999
2009-06-11 07:49:40 51°13.939 2°55.552 -999 -999 -999 -999
2009-06-11 07:49:50 51°13.959 2°55.538 -999 -999 -999 -999
2009-06-11 07:50:00 51°13.978 2°55.523 -999 -999 -999 -999
2009-06-11 07:50:10 51°13.998 2°55.508 -999 -999 -999 -999
2009-06-11 07:50:20 51°14.018 2°55.493 -999 -999 -999 -999
2009-06-11 07:50:30 51°14.038 2°55.478 -999 -999 -999 -999
2009-06-11 07:50:40 51°14.058 2°55.463 -999 -999 -999 -999
2009-06-11 07:50:50 51°14.079 2°55.448 -999 -999 -999 -999
2009-06-11 07:51:00 51°14.101 2°55.432 -999 -999 -999 -999
2009-06-11 07:51:10 51°14.124 2°55.414 -999 -999 -999 -999
2009-06-11 07:51:20 51°14.145 2°55.397 -999 -999 -999 -999
2009-06-11 07:51:30 51°14.165 2°55.378 -999 -999 -999 -999
2009-06-11 07:51:40 51°14.185 2°55.358 -999 -999 -999 -999
2009-06-11 07:51:50 51°14.204 2°55.336 -999 -999 -999 -999
2009-06-11 07:52:00 51°14.223 2°55.312 -999 -999 -999 -999
2009-06-11 07:52:10 51°14.239 2°55.289 -999 -999 -999 -999
2009-06-11 07:52:20 51°14.256 2°55.262 -999 -999 -999 -999
2009-06-11 07:52:30 51°14.272 2°55.234 -999 -999 -999 -999
2009-06-11 07:52:40 51°14.289 2°55.206 -999 -999 -999 -999
2009-06-11 07:52:50 51°14.306 2°55.177 -999 -999 -999 -999
2009-06-11 07:53:00 51°14.323 2°55.147 -999 -999 -999 -999
2009-06-11 07:53:10 51°14.34 2°55.118 -999 -999 -999 -999
2009-06-11 07:53:20 51°14.358 2°55.088 -999 -999 -999 -999
2009-06-11 07:53:30 51°14.375 2°55.057 -999 -999 -999 -999
2009-06-11 07:53:40 51°14.392 2°55.026 -999 -999 -999 -999
2009-06-11 07:53:50 51°14.407 2°54.992 -999 -999 -999 -999
2009-06-11 07:54:00 51°14.417 2°54.955 -999 -999 -999 -999
2009-06-11 07:54:10 51°14.423 2°54.915 -999 -999 -999 -999
2009-06-11 07:54:20 51°14.424 2°54.875 -999 -999 -999 -999
2009-06-11 07:54:30 51°14.421 2°54.831 -999 -999 -999 -999
2009-06-11 07:54:40 51°14.416 2°54.789 -999 -999 -999 -999
2009-06-11 07:54:50 51°14.412 2°54.746 -999 -999 -999 -999
2009-06-11 07:55:00 51°14.407 2°54.706 -999 -999 -999 -999
2009-06-11 07:55:10 51°14.4 2°54.66 -999 -999 -999 -999
2009-06-11 07:55:20 51°14.394 2°54.612 -999 -999 -999 -999
2009-06-11 07:55:30 51°14.387 2°54.565 -999 -999 -999 -999
2009-06-11 07:55:40 51°14.38 2°54.516 -999 -999 -999 -999
2009-06-11 07:55:50 51°14.373 2°54.467 -999 -999 -999 -999
2009-06-11 07:56:00 51°14.366 2°54.417 -999 -999 -999 -999
2009-06-11 07:56:10 51°14.358 2°54.366 -999 -999 -999 -999
2009-06-11 07:56:20 51°14.349 2°54.314 -999 -999 -999 -999
2009-06-11 07:56:30 51°14.341 2°54.261 -999 -999 -999 -999
2009-06-11 07:56:40 51°14.331 2°54.208 -999 -999 -999 -999
2009-06-11 07:56:50 51°14.32 2°54.155 -999 -999 -999 -999
2009-06-11 07:57:00 51°14.308 2°54.103 -999 -999 -999 -999
2009-06-11 07:57:10 51°14.295 2°54.051 -999 -999 -999 -999
2009-06-11 07:57:20 51°14.281 2°54 -999 -999 -999 -999
2009-06-11 07:57:30 51°14.266 2°53.948 -999 -999 -999 -999
2009-06-11 07:57:40 51°14.252 2°53.897 -999 -999 -999 -999
2009-06-11 07:57:50 51°14.237 2°53.845 -999 -999 -999 -999
2009-06-11 07:58:00 51°14.222 2°53.794 -999 -999 -999 -999
2009-06-11 07:58:10 51°14.208 2°53.743 -999 -999 -999 -999
2009-06-11 07:58:20 51°14.193 2°53.692 -999 -999 -999 -999
2009-06-11 07:58:30 51°14.179 2°53.642 -999 -999 -999 -999
2009-06-11 07:58:40 51°14.164 2°53.592 -999 -999 -999 -999
2009-06-11 07:58:50 51°14.149 2°53.542 -999 -999 -999 -999
2009-06-11 07:59:00 51°14.134 2°53.491 -999 -999 -999 -999
2009-06-11 07:59:10 51°14.118 2°53.436 -999 -999 -999 -999
2009-06-11 07:59:20 51°14.103 2°53.387 -999 -999 -999 -999
2009-06-11 07:59:30 51°14.088 2°53.337 -999 -999 -999 -999
2009-06-11 07:59:40 51°14.073 2°53.288 -999 -999 -999 -999
2009-06-11 07:59:50 51°14.058 2°53.238 -999 -999 -999 -999
2009-06-11 08:00:00 51°14.044 2°53.188 -999 -999 -999 -999
2009-06-11 08:00:10 51°14.03 2°53.138 -999 -999 -999 -999
2009-06-11 08:00:20 51°14.016 2°53.088 -999 -999 -999 -999
2009-06-11 08:00:30 51°14.001 2°53.037 -999 -999 -999 -999
2009-06-11 08:00:40 51°13.987 2°52.986 -999 -999 -999 -999
2009-06-11 08:00:50 51°13.973 2°52.936 -999 -999 -999 -999
2009-06-11 08:01:00 51°13.958 2°52.886 -999 -999 -999 -999
2009-06-11 08:01:10 51°13.943 2°52.836 -999 -999 -999 -999
2009-06-11 08:01:20 51°13.927 2°52.786 -999 -999 -999 -999
2009-06-11 08:01:30 51°13.912 2°52.736 -999 -999 -999 -999
2009-06-11 08:01:40 51°13.897 2°52.686 -999 -999 -999 -999
2009-06-11 08:01:50 51°13.881 2°52.638 -999 -999 -999 -999
2009-06-11 08:02:00 51°13.866 2°52.588 -999 -999 -999 -999
2009-06-11 08:02:10 51°13.851 2°52.544 -999 -999 -999 -999
2009-06-11 08:02:20 51°13.835 2°52.495 -999 -999 -999 -999
2009-06-11 08:02:30 51°13.82 2°52.445 -999 -999 -999 -999
2009-06-11 08:02:40 51°13.804 2°52.395 -999 -999 -999 -999
2009-06-11 08:02:50 51°13.788 2°52.346 -999 -999 -999 -999
2009-06-11 08:03:00 51°13.772 2°52.297 -999 -999 -999 -999
2009-06-11 08:03:10 51°13.756 2°52.249 -999 -999 -999 -999
2009-06-11 08:03:20 51°13.741 2°52.2 -999 -999 -999 -999
2009-06-11 08:03:30 51°13.725 2°52.15 -999 -999 -999 -999
2009-06-11 08:03:40 51°13.708 2°52.102 -999 -999 -999 -999
2009-06-11 08:03:50 51°13.692 2°52.053 -999 -999 -999 -999
2009-06-11 08:04:00 51°13.675 2°52.004 -999 -999 -999 -999
2009-06-11 08:04:10 51°13.66 2°51.954 -999 -999 -999 -999
2009-06-11 08:04:20 51°13.643 2°51.905 -999 -999 -999 -999
2009-06-11 08:04:30 51°13.627 2°51.857 -999 -999 -999 -999
2009-06-11 08:04:40 51°13.611 2°51.81 -999 -999 -999 -999
2009-06-11 08:04:50 51°13.595 2°51.764 -999 -999 -999 -999
2009-06-11 08:05:00 51°13.581 2°51.722 -999 -999 -999 -999
2009-06-11 08:05:10 51°13.567 2°51.682 -999 -999 -999 -999
2009-06-11 08:05:20 51°13.555 2°51.645 -999 -999 -999 -999
2009-06-11 08:05:30 51°13.542 2°51.609 -999 -999 -999 -999
2009-06-11 08:05:40 51°13.531 2°51.574 -999 -999 -999 -999
2009-06-11 08:05:50 51°13.519 2°51.539 -999 -999 -999 -999
2009-06-11 08:06:00 51°13.508 2°51.507 -999 -999 -999 -999
2009-06-11 08:06:10 51°13.497 2°51.476 -999 -999 -999 -999
2009-06-11 08:06:20 51°13.488 2°51.45 -999 -999 -999 -999
2009-06-11 08:06:30 51°13.48 2°51.431 -999 -999 -999 -999
2009-06-11 08:06:40 51°13.47 2°51.41 -999 -999 -999 -999
2009-06-11 08:06:50 51°13.46 2°51.395 -999 -999 -999 -999
2009-06-11 08:07:00 51°13.45 2°51.382 -999 -999 -999 -999
2009-06-11 08:07:10 51°13.441 2°51.372 -999 -999 -999 -999
2009-06-11 08:07:20 51°13.432 2°51.363 -999 -999 -999 -999
2009-06-11 08:07:30 51°13.423 2°51.355 -999 -999 -999 -999
2009-06-11 08:07:40 51°13.415 2°51.349 -999 -999 -999 -999
2009-06-11 08:07:50 51°13.406 2°51.343 -999 -999 -999 -999
2009-06-11 08:08:00 51°13.398 2°51.337 -999 -999 -999 -999
2009-06-11 08:08:10 51°13.39 2°51.331 -999 -999 -999 -999
2009-06-11 08:08:20 51°13.382 2°51.326 -999 -999 -999 -999
2009-06-11 08:08:30 51°13.375 2°51.32 -999 -999 -999 -999
2009-06-11 08:08:40 51°13.367 2°51.313 -999 -999 -999 -999
2009-06-11 08:08:50 51°13.359 2°51.306 -999 -999 -999 -999
2009-06-11 08:09:00 51°13.35 2°51.299 -999 -999 -999 -999
2009-06-11 08:09:10 51°13.342 2°51.292 -999 -999 -999 -999
2009-06-11 08:09:20 51°13.333 2°51.283 -999 -999 -999 -999
2009-06-11 08:09:30 51°13.324 2°51.273 -999 -999 -999 -999
2009-06-11 08:09:40 51°13.314 2°51.264 -999 -999 -999 -999
2009-06-11 08:09:50 51°13.304 2°51.254 -999 -999 -999 -999
2009-06-11 08:10:00 51°13.294 2°51.243 -999 -999 -999 -999
2009-06-11 08:10:10 51°13.284 2°51.232 -999 -999 -999 -999
2009-06-11 08:10:20 51°13.275 2°51.22 -999 -999 -999 -999
2009-06-11 08:10:30 51°13.266 2°51.208 -999 -999 -999 -999
2009-06-11 08:10:40 51°13.257 2°51.194 -999 -999 -999 -999
2009-06-11 08:10:50 51°13.249 2°51.178 -999 -999 -999 -999
2009-06-11 08:11:00 51°13.241 2°51.163 -999 -999 -999 -999
2009-06-11 08:11:10 51°13.234 2°51.146 -999 -999 -999 -999
2009-06-11 08:11:20 51°13.228 2°51.13 -999 -999 -999 -999
2009-06-11 08:11:30 51°13.221 2°51.113 -999 -999 -999 -999
2009-06-11 08:11:40 51°13.215 2°51.096 -999 -999 -999 -999
2009-06-11 08:11:50 51°13.208 2°51.079 -999 -999 -999 -999
2009-06-11 08:12:00 51°13.202 2°51.063 -999 -999 -999 -999
2009-06-11 08:12:10 51°13.196 2°51.047 -999 -999 -999 -999
2009-06-11 08:12:20 51°13.189 2°51.031 -999 -999 -999 -999
2009-06-11 08:12:30 51°13.183 2°51.015 -999 -999 -999 -999
2009-06-11 08:12:40 51°13.177 2°51 -999 -999 -999 -999
2009-06-11 08:12:50 51°13.171 2°50.986 -999 -999 -999 -999
2009-06-11 08:13:00 51°13.165 2°50.972 -999 -999 -999 -999
2009-06-11 08:13:10 51°13.16 2°50.958 -999 -999 -999 -999
2009-06-11 08:13:20 51°13.155 2°50.945 -999 -999 -999 -999
2009-06-11 08:13:30 51°13.15 2°50.932 -999 -999 -999 -999
2009-06-11 08:13:40 51°13.145 2°50.92 -999 -999 -999 -999
2009-06-11 08:13:50 51°13.141 2°50.908 -999 -999 -999 -999
2009-06-11 08:14:00 51°13.136 2°50.896 -999 -999 -999 -999
2009-06-11 08:14:10 51°13.131 2°50.885 -999 -999 -999 -999
2009-06-11 08:14:20 51°13.126 2°50.873 -999 -999 -999 -999
2009-06-11 08:14:30 51°13.122 2°50.863 -999 -999 -999 -999
2009-06-11 08:14:40 51°13.117 2°50.852 -999 -999 -999 -999
2009-06-11 08:14:50 51°13.113 2°50.842 -999 -999 -999 -999
2009-06-11 08:15:00 51°13.107 2°50.83 -999 -999 -999 -999
2009-06-11 08:15:10 51°13.103 2°50.819 -999 -999 -999 -999
2009-06-11 08:15:20 51°13.098 2°50.808 -999 -999 -999 -999
2009-06-11 08:15:30 51°13.093 2°50.798 -999 -999 -999 -999
2009-06-11 08:15:40 51°13.088 2°50.785 -999 -999 -999 -999
2009-06-11 08:15:50 51°13.084 2°50.774 -999 -999 -999 -999
2009-06-11 08:16:00 51°13.078 2°50.763 -999 -999 -999 -999
2009-06-11 08:16:10 51°13.073 2°50.751 -999 -999 -999 -999
2009-06-11 08:16:20 51°13.068 2°50.738 -999 -999 -999 -999
2009-06-11 08:16:30 51°13.063 2°50.726 -999 -999 -999 -999
2009-06-11 08:16:40 51°13.058 2°50.714 -999 -999 -999 -999
2009-06-11 08:16:50 51°13.053 2°50.699 -999 -999 -999 -999
2009-06-11 08:17:00 51°13.048 2°50.686 -999 -999 -999 -999
2009-06-11 08:17:10 51°13.042 2°50.674 -999 -999 -999 -999
2009-06-11 08:17:20 51°13.036 2°50.66 -999 -999 -999 -999
2009-06-11 08:17:30 51°13.032 2°50.648 -999 -999 -999 -999
2009-06-11 08:17:40 51°13.025 2°50.635 -999 -999 -999 -999
2009-06-11 08:17:50 51°13.02 2°50.624 -999 -999 -999 -999
2009-06-11 08:18:00 51°13.014 2°50.61 -999 -999 -999 -999
2009-06-11 08:18:10 51°13.009 2°50.598 -999 -999 -999 -999
2009-06-11 08:18:20 51°13.003 2°50.586 -999 -999 -999 -999
2009-06-11 08:18:30 51°12.998 2°50.573 -999 -999 -999 -999
2009-06-11 08:18:40 51°12.992 2°50.56 -999 -999 -999 -999
2009-06-11 08:18:50 51°12.987 2°50.548 -999 -999 -999 -999
2009-06-11 08:19:00 51°12.981 2°50.535 -999 -999 -999 -999
2009-06-11 08:19:10 51°12.976 2°50.522 -999 -999 -999 -999
2009-06-11 08:19:20 51°12.97 2°50.509 -999 -999 -999 -999
2009-06-11 08:19:30 51°12.965 2°50.496 -999 -999 -999 -999
2009-06-11 08:19:40 51°12.96 2°50.483 -999 -999 -999 -999
2009-06-11 08:19:50 51°12.955 2°50.469 -999 -999 -999 -999
2009-06-11 08:20:00 51°12.95 2°50.456 -999 -999 -999 -999
2009-06-11 08:20:10 51°12.944 2°50.445 -999 -999 -999 -999
2009-06-11 08:20:20 51°12.939 2°50.433 -999 -999 -999 -999
2009-06-11 08:20:30 51°12.933 2°50.42 -999 -999 -999 -999
2009-06-11 08:20:40 51°12.927 2°50.407 -999 -999 -999 -999
2009-06-11 08:20:50 51°12.921 2°50.395 -999 -999 -999 -999
2009-06-11 08:21:00 51°12.916 2°50.383 -999 -999 -999 -999
2009-06-11 08:21:10 51°12.91 2°50.371 -999 -999 -999 -999
2009-06-11 08:21:20 51°12.904 2°50.359 -999 -999 -999 -999
2009-06-11 08:21:30 51°12.898 2°50.346 -999 -999 -999 -999
2009-06-11 08:21:40 51°12.893 2°50.334 -999 -999 -999 -999
2009-06-11 08:21:50 51°12.887 2°50.322 -999 -999 -999 -999
2009-06-11 08:22:00 51°12.882 2°50.31 -999 -999 -999 -999
2009-06-11 08:22:10 51°12.877 2°50.298 -999 -999 -999 -999
2009-06-11 08:22:20 51°12.871 2°50.286 -999 -999 -999 -999
2009-06-11 08:22:30 51°12.866 2°50.274 -999 -999 -999 -999
2009-06-11 08:22:40 51°12.861 2°50.262 -999 -999 -999 -999
2009-06-11 08:22:50 51°12.855 2°50.25 -999 -999 -999 -999
2009-06-11 08:23:00 51°12.85 2°50.238 -999 -999 -999 -999
2009-06-11 08:23:10 51°12.844 2°50.226 -999 -999 -999 -999
2009-06-11 08:23:20 51°12.839 2°50.214 -999 -999 -999 -999
2009-06-11 08:23:30 51°12.834 2°50.202 -999 -999 -999 -999
2009-06-11 08:23:40 51°12.828 2°50.19 -999 -999 -999 -999
2009-06-11 08:23:50 51°12.823 2°50.178 -999 -999 -999 -999
2009-06-11 08:24:00 51°12.817 2°50.167 -999 -999 -999 -999
2009-06-11 08:24:10 51°12.811 2°50.153 -999 -999 -999 -999
2009-06-11 08:24:20 51°12.806 2°50.141 -999 -999 -999 -999
2009-06-11 08:24:30 51°12.8 2°50.129 -999 -999 -999 -999
2009-06-11 08:24:40 51°12.795 2°50.117 -999 -999 -999 -999
2009-06-11 08:24:50 51°12.789 2°50.105 -999 -999 -999 -999
2009-06-11 08:25:00 51°12.784 2°50.093 -999 -999 -999 -999
2009-06-11 08:25:10 51°12.778 2°50.08 -999 -999 -999 -999
2009-06-11 08:25:20 51°12.773 2°50.068 -999 -999 -999 -999
2009-06-11 08:25:30 51°12.768 2°50.056 -999 -999 -999 -999
2009-06-11 08:25:40 51°12.762 2°50.044 -999 -999 -999 -999
2009-06-11 08:25:50 51°12.757 2°50.031 -999 -999 -999 -999
2009-06-11 08:26:00 51°12.752 2°50.019 -999 -999 -999 -999
2009-06-11 08:26:10 51°12.747 2°50.007 -999 -999 -999 -999
2009-06-11 08:26:20 51°12.741 2°49.994 -999 -999 -999 -999
2009-06-11 08:26:30 51°12.736 2°49.982 -999 -999 -999 -999
2009-06-11 08:26:40 51°12.731 2°49.97 -999 -999 -999 -999
2009-06-11 08:26:50 51°12.726 2°49.957 -999 -999 -999 -999
2009-06-11 08:27:00 51°12.721 2°49.944 -999 -999 -999 -999
2009-06-11 08:27:10 51°12.717 2°49.932 -999 -999 -999 -999
2009-06-11 08:27:20 51°12.712 2°49.92 -999 -999 -999 -999
2009-06-11 08:27:30 51°12.707 2°49.907 -999 -999 -999 -999
2009-06-11 08:27:40 51°12.702 2°49.895 -999 -999 -999 -999
2009-06-11 08:27:50 51°12.697 2°49.882 -999 -999 -999 -999
2009-06-11 08:28:00 51°12.692 2°49.87 -999 -999 -999 -999
2009-06-11 08:28:10 51°12.687 2°49.857 -999 -999 -999 -999
2009-06-11 08:28:20 51°12.682 2°49.845 -999 -999 -999 -999
2009-06-11 08:28:30 51°12.677 2°49.832 -999 -999 -999 -999
2009-06-11 08:28:40 51°12.672 2°49.819 -999 -999 -999 -999
2009-06-11 08:28:50 51°12.667 2°49.806 -999 -999 -999 -999
2009-06-11 08:29:00 51°12.661 2°49.794 -999 -999 -999 -999
2009-06-11 08:29:10 51°12.656 2°49.78 -999 -999 -999 -999
2009-06-11 08:29:20 51°12.651 2°49.767 -999 -999 -999 -999
2009-06-11 08:29:30 51°12.645 2°49.754 -999 -999 -999 -999
2009-06-11 08:29:40 51°12.64 2°49.741 -999 -999 -999 -999
2009-06-11 08:29:50 51°12.634 2°49.728 -999 -999 -999 -999
2009-06-11 08:30:00 51°12.629 2°49.715 -999 -999 -999 -999
2009-06-11 08:30:10 51°12.623 2°49.701 -999 -999 -999 -999
2009-06-11 08:30:20 51°12.617 2°49.689 -999 -999 -999 -999
2009-06-11 08:30:30 51°12.612 2°49.676 -999 -999 -999 -999
2009-06-11 08:30:40 51°12.606 2°49.663 -999 -999 -999 -999
2009-06-11 08:30:50 51°12.601 2°49.65 -999 -999 -999 -999
2009-06-11 08:31:00 51°12.595 2°49.637 -999 -999 -999 -999
2009-06-11 08:31:10 51°12.59 2°49.624 -999 -999 -999 -999
2009-06-11 08:31:20 51°12.584 2°49.611 -999 -999 -999 -999
2009-06-11 08:31:30 51°12.58 2°49.598 -999 -999 -999 -999
2009-06-11 08:31:40 51°12.575 2°49.585 -999 -999 -999 -999
2009-06-11 08:31:50 51°12.569 2°49.572 -999 -999 -999 -999
2009-06-11 08:32:00 51°12.564 2°49.559 -999 -999 -999 -999
2009-06-11 08:32:10 51°12.559 2°49.545 -999 -999 -999 -999
2009-06-11 08:32:20 51°12.553 2°49.533 -999 -999 -999 -999
2009-06-11 08:32:30 51°12.548 2°49.521 -999 -999 -999 -999
2009-06-11 08:32:40 51°12.543 2°49.509 -999 -999 -999 -999
2009-06-11 08:32:50 51°12.538 2°49.497 -999 -999 -999 -999
2009-06-11 08:33:00 51°12.533 2°49.485 -999 -999 -999 -999
2009-06-11 08:33:10 51°12.527 2°49.473 -999 -999 -999 -999
2009-06-11 08:33:20 51°12.522 2°49.462 -999 -999 -999 -999
2009-06-11 08:33:30 51°12.517 2°49.451 -999 -999 -999 -999
2009-06-11 08:33:40 51°12.512 2°49.44 -999 -999 -999 -999
2009-06-11 08:33:50 51°12.506 2°49.429 -999 -999 -999 -999
2009-06-11 08:34:00 51°12.501 2°49.419 -999 -999 -999 -999
2009-06-11 08:34:10 51°12.496 2°49.409 -999 -999 -999 -999
2009-06-11 08:34:20 51°12.491 2°49.399 -999 -999 -999 -999
2009-06-11 08:34:30 51°12.486 2°49.388 -999 -999 -999 -999
2009-06-11 08:34:40 51°12.48 2°49.378 -999 -999 -999 -999
2009-06-11 08:34:50 51°12.475 2°49.368 -999 -999 -999 -999
2009-06-11 08:35:00 51°12.469 2°49.357 -999 -999 -999 -999
2009-06-11 08:35:10 51°12.464 2°49.347 -999 -999 -999 -999
2009-06-11 08:35:20 51°12.459 2°49.336 -999 -999 -999 -999
2009-06-11 08:35:30 51°12.454 2°49.325 -999 -999 -999 -999
2009-06-11 08:35:40 51°12.449 2°49.314 -999 -999 -999 -999
2009-06-11 08:35:50 51°12.444 2°49.304 -999 -999 -999 -999
2009-06-11 08:36:00 51°12.439 2°49.293 -999 -999 -999 -999
2009-06-11 08:36:10 51°12.435 2°49.282 -999 -999 -999 -999
2009-06-11 08:36:20 51°12.43 2°49.272 -999 -999 -999 -999
2009-06-11 08:36:30 51°12.426 2°49.262 -999 -999 -999 -999
2009-06-11 08:36:40 51°12.42 2°49.251 -999 -999 -999 -999
2009-06-11 08:36:50 51°12.415 2°49.241 -999 -999 -999 -999
2009-06-11 08:37:00 51°12.41 2°49.231 -999 -999 -999 -999
2009-06-11 08:37:10 51°12.404 2°49.221 -999 -999 -999 -999
2009-06-11 08:37:20 51°12.398 2°49.211 -999 -999 -999 -999
2009-06-11 08:37:30 51°12.392 2°49.201 -999 -999 -999 -999
2009-06-11 08:37:40 51°12.386 2°49.192 -999 -999 -999 -999
2009-06-11 08:37:50 51°12.379 2°49.183 -999 -999 -999 -999
2009-06-11 08:38:00 51°12.372 2°49.175 -999 -999 -999 -999
2009-06-11 08:38:10 51°12.366 2°49.166 -999 -999 -999 -999
2009-06-11 08:38:20 51°12.358 2°49.158 -999 -999 -999 -999
2009-06-11 08:38:30 51°12.351 2°49.15 -999 -999 -999 -999
2009-06-11 08:38:40 51°12.343 2°49.143 -999 -999 -999 -999
2009-06-11 08:38:50 51°12.336 2°49.135 -999 -999 -999 -999
2009-06-11 08:39:00 51°12.328 2°49.127 -999 -999 -999 -999
2009-06-11 08:39:10 51°12.319 2°49.119 -999 -999 -999 -999
2009-06-11 08:39:20 51°12.311 2°49.111 -999 -999 -999 -999
2009-06-11 08:39:30 51°12.303 2°49.103 -999 -999 -999 -999
2009-06-11 08:39:40 51°12.295 2°49.096 -999 -999 -999 -999
2009-06-11 08:39:50 51°12.287 2°49.088 -999 -999 -999 -999
2009-06-11 08:40:00 51°12.279 2°49.08 -999 -999 -999 -999
2009-06-11 08:40:10 51°12.272 2°49.072 -999 -999 -999 -999
2009-06-11 08:40:20 51°12.264 2°49.063 -999 -999 -999 -999
2009-06-11 08:40:30 51°12.257 2°49.055 -999 -999 -999 -999
2009-06-11 08:40:40 51°12.25 2°49.047 -999 -999 -999 -999
2009-06-11 08:40:50 51°12.243 2°49.038 -999 -999 -999 -999
2009-06-11 08:41:00 51°12.236 2°49.029 -999 -999 -999 -999
2009-06-11 08:41:10 51°12.229 2°49.02 -999 -999 -999 -999
2009-06-11 08:41:20 51°12.222 2°49.012 -999 -999 -999 -999
2009-06-11 08:41:30 51°12.216 2°49.003 -999 -999 -999 -999
2009-06-11 08:41:40 51°12.21 2°48.994 -999 -999 -999 -999
2009-06-11 08:41:50 51°12.204 2°48.985 -999 -999 -999 -999
2009-06-11 08:42:00 51°12.199 2°48.976 -999 -999 -999 -999
2009-06-11 08:42:10 51°12.194 2°48.969 -999 -999 -999 -999
2009-06-11 08:42:20 51°12.189 2°48.96 -999 -999 -999 -999
2009-06-11 08:42:30 51°12.184 2°48.952 -999 -999 -999 -999
2009-06-11 08:42:40 51°12.179 2°48.944 -999 -999 -999 -999
2009-06-11 08:42:50 51°12.174 2°48.935 -999 -999 -999 -999
2009-06-11 08:43:00 51°12.17 2°48.927 -999 -999 -999 -999
2009-06-11 08:43:10 51°12.165 2°48.92 -999 -999 -999 -999
2009-06-11 08:43:20 51°12.161 2°48.913 -999 -999 -999 -999
2009-06-11 08:43:30 51°12.157 2°48.905 -999 -999 -999 -999
2009-06-11 08:43:40 51°12.153 2°48.898 -999 -999 -999 -999
2009-06-11 08:43:50 51°12.149 2°48.89 -999 -999 -999 -999
2009-06-11 08:44:00 51°12.146 2°48.882 -999 -999 -999 -999
2009-06-11 08:44:10 51°12.142 2°48.874 -999 -999 -999 -999
2009-06-11 08:44:20 51°12.139 2°48.864 -999 -999 -999 -999
2009-06-11 08:44:30 51°12.136 2°48.853 -999 -999 -999 -999
2009-06-11 08:44:40 51°12.135 2°48.841 -999 -999 -999 -999
2009-06-11 08:44:50 51°12.135 2°48.829 -999 -999 -999 -999
2009-06-11 08:45:00 51°12.136 2°48.817 -999 -999 -999 -999
2009-06-11 08:45:10 51°12.139 2°48.806 -999 -999 -999 -999
2009-06-11 08:45:20 51°12.144 2°48.796 -999 -999 -999 -999
2009-06-11 08:45:30 51°12.15 2°48.789 -999 -999 -999 -999
2009-06-11 08:45:40 51°12.158 2°48.785 -999 -999 -999 -999
2009-06-11 08:45:50 51°12.167 2°48.786 -999 -999 -999 -999
2009-06-11 08:46:00 51°12.176 2°48.791 -999 -999 -999 -999
2009-06-11 08:46:10 51°12.187 2°48.802 -999 -999 -999 -999
2009-06-11 08:46:20 51°12.197 2°48.818 -999 -999 -999 -999
2009-06-11 08:46:30 51°12.207 2°48.838 -999 -999 -999 -999
2009-06-11 08:46:40 51°12.219 2°48.861 -999 -999 -999 -999
2009-06-11 08:46:50 51°12.232 2°48.888 -999 -999 -999 -999
2009-06-11 08:47:00 51°12.245 2°48.918 -999 -999 -999 -999
2009-06-11 08:47:10 51°12.258 2°48.949 -999 -999 -999 -999
2009-06-11 08:47:20 51°12.272 2°48.984 -999 -999 -999 -999
2009-06-11 08:47:30 51°12.286 2°49.02 -999 -999 -999 -999
2009-06-11 08:47:40 51°12.301 2°49.057 -999 -999 -999 -999
2009-06-11 08:47:50 51°12.316 2°49.095 -999 -999 -999 -999
2009-06-11 08:48:00 51°12.331 2°49.133 -999 -999 -999 -999
2009-06-11 08:48:10 51°12.345 2°49.168 -999 -999 -999 -999
2009-06-11 08:48:20 51°12.36 2°49.207 -999 -999 -999 -999
2009-06-11 08:48:30 51°12.375 2°49.246 -999 -999 -999 -999
2009-06-11 08:48:40 51°12.39 2°49.284 -999 -999 -999 -999
2009-06-11 08:48:50 51°12.406 2°49.323 -999 -999 -999 -999
2009-06-11 08:49:00 51°12.421 2°49.362 -999 -999 -999 -999
2009-06-11 08:49:10 51°12.436 2°49.401 -999 -999 -999 -999
2009-06-11 08:49:20 51°12.452 2°49.44 -999 -999 -999 -999
2009-06-11 08:49:30 51°12.467 2°49.479 -999 -999 -999 -999
2009-06-11 08:49:40 51°12.483 2°49.518 -999 -999 -999 -999
2009-06-11 08:49:50 51°12.498 2°49.557 -999 -999 -999 -999
2009-06-11 08:50:00 51°12.514 2°49.595 -999 -999 -999 -999
2009-06-11 08:50:10 51°12.53 2°49.634 -999 -999 -999 -999
2009-06-11 08:50:20 51°12.545 2°49.673 -999 -999 -999 -999
2009-06-11 08:50:30 51°12.561 2°49.711 -999 -999 -999 -999
2009-06-11 08:50:40 51°12.576 2°49.749 -999 -999 -999 -999
2009-06-11 08:50:50 51°12.591 2°49.788 -999 -999 -999 -999
2009-06-11 08:51:00 51°12.606 2°49.826 -999 -999 -999 -999
2009-06-11 08:51:10 51°12.621 2°49.864 -999 -999 -999 -999
2009-06-11 08:51:20 51°12.636 2°49.902 -999 -999 -999 -999
2009-06-11 08:51:30 51°12.651 2°49.941 -999 -999 -999 -999
2009-06-11 08:51:40 51°12.667 2°49.979 -999 -999 -999 -999
2009-06-11 08:51:50 51°12.682 2°50.018 -999 -999 -999 -999
2009-06-11 08:52:00 51°12.696 2°50.057 -999 -999 -999 -999
2009-06-11 08:52:10 51°12.712 2°50.099 -999 -999 -999 -999
2009-06-11 08:52:20 51°12.728 2°50.137 -999 -999 -999 -999
2009-06-11 08:52:30 51°12.743 2°50.176 -999 -999 -999 -999
2009-06-11 08:52:40 51°12.757 2°50.215 -999 -999 -999 -999
2009-06-11 08:52:50 51°12.773 2°50.252 -999 -999 -999 -999
2009-06-11 08:53:00 51°12.79 2°50.289 -999 -999 -999 -999
2009-06-11 08:53:10 51°12.807 2°50.324 -999 -999 -999 -999
2009-06-11 08:53:20 51°12.824 2°50.36 -999 -999 -999 -999
2009-06-11 08:53:30 51°12.842 2°50.395 -999 -999 -999 -999
2009-06-11 08:53:40 51°12.86 2°50.43 -999 -999 -999 -999
2009-06-11 08:53:50 51°12.877 2°50.465 -999 -999 -999 -999
2009-06-11 08:54:00 51°12.896 2°50.499 -999 -999 -999 -999
2009-06-11 08:54:10 51°12.913 2°50.536 -999 -999 -999 -999
2009-06-11 08:54:20 51°12.931 2°50.571 -999 -999 -999 -999
2009-06-11 08:54:30 51°12.948 2°50.608 -999 -999 -999 -999
2009-06-11 08:54:40 51°12.966 2°50.644 -999 -999 -999 -999
2009-06-11 08:54:50 51°12.984 2°50.679 -999 -999 -999 -999
2009-06-11 08:55:00 51°13.001 2°50.71 -999 -999 -999 -999
2009-06-11 08:55:10 51°13.019 2°50.745 -999 -999 -999 -999
2009-06-11 08:55:20 51°13.037 2°50.781 -999 -999 -999 -999
2009-06-11 08:55:30 51°13.055 2°50.816 -999 -999 -999 -999
2009-06-11 08:55:40 51°13.073 2°50.852 -999 -999 -999 -999
2009-06-11 08:55:50 51°13.09 2°50.887 -999 -999 -999 -999
2009-06-11 08:56:00 51°13.108 2°50.922 -999 -999 -999 -999
2009-06-11 08:56:10 51°13.126 2°50.958 -999 -999 -999 -999
2009-06-11 08:56:20 51°13.144 2°50.992 -999 -999 -999 -999
2009-06-11 08:56:30 51°13.161 2°51.028 -999 -999 -999 -999
2009-06-11 08:56:40 51°13.179 2°51.063 -999 -999 -999 -999
2009-06-11 08:56:50 51°13.197 2°51.099 -999 -999 -999 -999
2009-06-11 08:57:00 51°13.214 2°51.135 -999 -999 -999 -999
2009-06-11 08:57:10 51°13.232 2°51.17 -999 -999 -999 -999
2009-06-11 08:57:20 51°13.25 2°51.205 -999 -999 -999 -999
2009-06-11 08:57:30 51°13.267 2°51.241 -999 -999 -999 -999
2009-06-11 08:57:40 51°13.284 2°51.277 -999 -999 -999 -999
2009-06-11 08:57:50 51°13.302 2°51.311 -999 -999 -999 -999
2009-06-11 08:58:00 51°13.318 2°51.346 -999 -999 -999 -999
2009-06-11 08:58:10 51°13.334 2°51.376 -999 -999 -999 -999
2009-06-11 08:58:20 51°13.347 2°51.4 -999 -999 -999 -999
2009-06-11 08:58:30 51°13.36 2°51.415 -999 -999 -999 -999
2009-06-11 08:58:40 51°13.372 2°51.422 -999 -999 -999 -999
2009-06-11 08:58:50 51°13.383 2°51.424 -999 -999 -999 -999
2009-06-11 08:59:00 51°13.392 2°51.423 -999 -999 -999 -999
2009-06-11 08:59:10 51°13.4 2°51.419 -999 -999 -999 -999
2009-06-11 08:59:20 51°13.407 2°51.411 -999 -999 -999 -999
2009-06-11 08:59:30 51°13.413 2°51.404 -999 -999 -999 -999
2009-06-11 08:59:40 51°13.417 2°51.396 -999 -999 -999 -999
2009-06-11 08:59:50 51°13.422 2°51.387 -999 -999 -999 -999
2009-06-11 09:00:00 51°13.426 2°51.379 -999 -999 -999 -999
2009-06-11 09:00:10 51°13.43 2°51.371 -999 -999 -999 -999
2009-06-11 09:00:20 51°13.434 2°51.363 -999 -999 -999 -999
2009-06-11 09:00:30 51°13.437 2°51.358 -999 -999 -999 -999
2009-06-11 09:00:40 51°13.439 2°51.353 -999 -999 -999 -999
2009-06-11 09:00:50 51°13.44 2°51.349 -999 -999 -999 -999
2009-06-11 09:01:00 51°13.44 2°51.346 -999 -999 -999 -999
2009-06-11 09:01:10 51°13.44 2°51.343 -999 -999 -999 -999
2009-06-11 09:01:20 51°13.44 2°51.341 -999 -999 -999 -999
2009-06-11 09:01:30 51°13.44 2°51.338 -999 -999 -999 -999
2009-06-11 09:01:40 51°13.44 2°51.336 -999 -999 -999 -999
2009-06-11 09:01:50 51°13.439 2°51.335 -999 -999 -999 -999
2009-06-11 09:02:00 51°13.439 2°51.334 -999 -999 -999 -999
2009-06-11 09:02:10 51°13.438 2°51.333 -999 -999 -999 -999
2009-06-11 09:02:20 51°13.437 2°51.333 -999 -999 -999 -999
2009-06-11 09:02:30 51°13.435 2°51.332 -999 -999 -999 -999
2009-06-11 09:02:40 51°13.434 2°51.332 -999 -999 -999 -999
2009-06-11 09:02:50 51°13.432 2°51.332 -999 -999 -999 -999
2009-06-11 09:03:00 51°13.429 2°51.332 -999 -999 -999 -999
2009-06-11 09:03:10 51°13.427 2°51.332 -999 -999 -999 -999
2009-06-11 09:03:20 51°13.425 2°51.332 -999 -999 -999 -999
2009-06-11 09:03:30 51°13.423 2°51.332 -999 -999 -999 -999
2009-06-11 09:03:40 51°13.421 2°51.332 -999 -999 -999 -999
2009-06-11 09:03:50 51°13.419 2°51.331 -999 -999 -999 -999
2009-06-11 09:04:00 51°13.416 2°51.331 -999 -999 -999 -999
2009-06-11 09:04:10 51°13.414 2°51.331 -999 -999 -999 -999
2009-06-11 09:04:20 51°13.412 2°51.33 -999 -999 -999 -999
2009-06-11 09:04:30 51°13.409 2°51.33 -999 -999 -999 -999
2009-06-11 09:04:40 51°13.406 2°51.329 -999 -999 -999 -999
2009-06-11 09:04:50 51°13.404 2°51.329 -999 -999 -999 -999
2009-06-11 09:05:00 51°13.401 2°51.328 -999 -999 -999 -999
2009-06-11 09:05:10 51°13.399 2°51.328 -999 -999 -999 -999
2009-06-11 09:05:20 51°13.396 2°51.327 -999 -999 -999 -999
2009-06-11 09:05:30 51°13.394 2°51.327 -999 -999 -999 -999
2009-06-11 09:05:40 51°13.391 2°51.327 -999 -999 -999 -999
2009-06-11 09:05:50 51°13.389 2°51.326 -999 -999 -999 -999
2009-06-11 09:06:00 51°13.386 2°51.326 -999 -999 -999 -999
2009-06-11 09:06:10 51°13.384 2°51.325 -999 -999 -999 -999
2009-06-11 09:06:20 51°13.382 2°51.325 -999 -999 -999 -999
2009-06-11 09:06:30 51°13.379 2°51.324 -999 -999 -999 -999
2009-06-11 09:06:40 51°13.376 2°51.323 -999 -999 -999 -999
2009-06-11 09:06:50 51°13.374 2°51.322 -999 -999 -999 -999
2009-06-11 09:07:00 51°13.371 2°51.321 -999 -999 -999 -999
2009-06-11 09:07:10 51°13.369 2°51.32 -999 -999 -999 -999
2009-06-11 09:07:20 51°13.366 2°51.319 -999 -999 -999 -999
2009-06-11 09:07:30 51°13.364 2°51.318 -999 -999 -999 -999
2009-06-11 09:07:40 51°13.361 2°51.318 -999 -999 -999 -999
2009-06-11 09:07:50 51°13.359 2°51.318 -999 -999 -999 -999
2009-06-11 09:08:00 51°13.356 2°51.317 -999 -999 -999 -999
2009-06-11 09:08:10 51°13.354 2°51.316 -999 -999 -999 -999
2009-06-11 09:08:20 51°13.351 2°51.316 -999 -999 -999 -999
2009-06-11 09:08:30 51°13.348 2°51.315 -999 -999 -999 -999
2009-06-11 09:08:40 51°13.346 2°51.315 -999 -999 -999 -999
2009-06-11 09:08:50 51°13.343 2°51.314 -999 -999 -999 -999
2009-06-11 09:09:00 51°13.341 2°51.313 -999 -999 -999 -999
2009-06-11 09:09:10 51°13.338 2°51.313 -999 -999 -999 -999
2009-06-11 09:09:20 51°13.336 2°51.312 -999 -999 -999 -999
2009-06-11 09:09:30 51°13.333 2°51.311 -999 -999 -999 -999
2009-06-11 09:09:40 51°13.331 2°51.31 -999 -999 -999 -999
2009-06-11 09:09:50 51°13.329 2°51.31 -999 -999 -999 -999
2009-06-11 09:10:00 51°13.328 2°51.31 -999 -999 -999 -999
2009-06-11 09:10:10 51°13.33 2°51.31 -999 -999 -999 -999
2009-06-11 09:10:20 51°13.334 2°51.312 -999 -999 -999 -999
2009-06-11 09:10:30 51°13.339 2°51.314 -999 -999 -999 -999
2009-06-11 09:10:40 51°13.347 2°51.319 -999 -999 -999 -999
2009-06-11 09:10:50 51°13.355 2°51.329 -999 -999 -999 -999
2009-06-11 09:11:00 51°13.364 2°51.348 -999 -999 -999 -999
2009-06-11 09:11:10 51°13.37 2°51.37 -999 -999 -999 -999
2009-06-11 09:11:20 51°13.379 2°51.395 -999 -999 -999 -999
2009-06-11 09:11:30 51°13.388 2°51.423 -999 -999 -999 -999
2009-06-11 09:11:40 51°13.398 2°51.455 -999 -999 -999 -999
2009-06-11 09:11:50 51°13.409 2°51.487 -999 -999 -999 -999
2009-06-11 09:12:00 51°13.421 2°51.521 -999 -999 -999 -999
2009-06-11 09:12:10 51°13.433 2°51.555 -999 -999 -999 -999
2009-06-11 09:12:20 51°13.446 2°51.59 -999 -999 -999 -999
2009-06-11 09:12:30 51°13.458 2°51.626 -999 -999 -999 -999
2009-06-11 09:12:40 51°13.47 2°51.663 -999 -999 -999 -999
2009-06-11 09:12:50 51°13.484 2°51.701 -999 -999 -999 -999
2009-06-11 09:13:00 51°13.498 2°51.739 -999 -999 -999 -999
2009-06-11 09:13:10 51°13.509 2°51.775 -999 -999 -999 -999
2009-06-11 09:13:20 51°13.524 2°51.813 -999 -999 -999 -999
2009-06-11 09:13:30 51°13.538 2°51.853 -999 -999 -999 -999
2009-06-11 09:13:40 51°13.552 2°51.893 -999 -999 -999 -999
2009-06-11 09:13:50 51°13.566 2°51.933 -999 -999 -999 -999
2009-06-11 09:14:00 51°13.58 2°51.974 -999 -999 -999 -999
2009-06-11 09:14:10 51°13.594 2°52.014 -999 -999 -999 -999
2009-06-11 09:14:20 51°13.607 2°52.055 -999 -999 -999 -999
2009-06-11 09:14:30 51°13.621 2°52.095 -999 -999 -999 -999
2009-06-11 09:14:40 51°13.634 2°52.136 -999 -999 -999 -999
2009-06-11 09:14:50 51°13.647 2°52.177 -999 -999 -999 -999
2009-06-11 09:15:00 51°13.661 2°52.217 -999 -999 -999 -999
2009-06-11 09:15:10 51°13.675 2°52.258 -999 -999 -999 -999
2009-06-11 09:15:20 51°13.688 2°52.299 -999 -999 -999 -999
2009-06-11 09:15:30 51°13.701 2°52.339 -999 -999 -999 -999
2009-06-11 09:15:40 51°13.715 2°52.378 -999 -999 -999 -999
2009-06-11 09:15:50 51°13.728 2°52.418 -999 -999 -999 -999
2009-06-11 09:16:00 51°13.742 2°52.458 -999 -999 -999 -999
2009-06-11 09:16:10 51°13.756 2°52.498 -999 -999 -999 -999
2009-06-11 09:16:20 51°13.769 2°52.538 -999 -999 -999 -999
2009-06-11 09:16:30 51°13.784 2°52.577 -999 -999 -999 -999
2009-06-11 09:16:40 51°13.799 2°52.615 -999 -999 -999 -999
2009-06-11 09:16:50 51°13.814 2°52.654 -999 -999 -999 -999
2009-06-11 09:17:00 51°13.83 2°52.692 -999 -999 -999 -999
2009-06-11 09:17:10 51°13.847 2°52.73 -999 -999 -999 -999
2009-06-11 09:17:20 51°13.865 2°52.771 -999 -999 -999 -999
2009-06-11 09:17:30 51°13.88 2°52.805 -999 -999 -999 -999
2009-06-11 09:17:40 51°13.899 2°52.846 -999 -999 -999 -999
2009-06-11 09:17:50 51°13.915 2°52.879 -999 -999 -999 -999
2009-06-11 09:18:00 51°13.933 2°52.92 -999 -999 -999 -999
2009-06-11 09:18:10 51°13.95 2°52.956 -999 -999 -999 -999
2009-06-11 09:18:20 51°13.967 2°52.993 -999 -999 -999 -999
2009-06-11 09:18:30 51°13.985 2°53.028 -999 -999 -999 -999
2009-06-11 09:18:40 51°14.002 2°53.065 -999 -999 -999 -999
2009-06-11 09:18:50 51°14.019 2°53.102 -999 -999 -999 -999
2009-06-11 09:19:00 51°14.036 2°53.138 -999 -999 -999 -999
2009-06-11 09:19:10 51°14.052 2°53.175 -999 -999 -999 -999
2009-06-11 09:19:20 51°14.069 2°53.212 -999 -999 -999 -999
2009-06-11 09:19:30 51°14.086 2°53.249 -999 -999 -999 -999
2009-06-11 09:19:40 51°14.103 2°53.285 -999 -999 -999 -999
2009-06-11 09:19:50 51°14.119 2°53.323 -999 -999 -999 -999
2009-06-11 09:20:00 51°14.136 2°53.36 -999 -999 -999 -999
2009-06-11 09:20:10 51°14.152 2°53.399 -999 -999 -999 -999
2009-06-11 09:20:20 51°14.168 2°53.437 -999 -999 -999 -999
2009-06-11 09:20:30 51°14.183 2°53.47 -999 -999 -999 -999
2009-06-11 09:20:40 51°14.199 2°53.507 -999 -999 -999 -999
2009-06-11 09:20:50 51°14.216 2°53.544 -999 -999 -999 -999
2009-06-11 09:21:00 51°14.232 2°53.582 -999 -999 -999 -999
2009-06-11 09:21:10 51°14.249 2°53.619 -999 -999 -999 -999
2009-06-11 09:21:20 51°14.265 2°53.656 -999 -999 -999 -999
2009-06-11 09:21:30 51°14.283 2°53.692 -999 -999 -999 -999
2009-06-11 09:21:40 51°14.299 2°53.729 -999 -999 -999 -999
2009-06-11 09:21:50 51°14.317 2°53.765 -999 -999 -999 -999
2009-06-11 09:22:00 51°14.334 2°53.802 -999 -999 -999 -999
2009-06-11 09:22:10 51°14.352 2°53.837 -999 -999 -999 -999
2009-06-11 09:22:20 51°14.374 2°53.873 -999 -999 -999 -999
2009-06-11 09:22:30 51°14.392 2°53.901 -999 -999 -999 -999
2009-06-11 09:22:40 51°14.416 2°53.933 -999 -999 -999 -999
2009-06-11 09:22:50 51°14.438 2°53.959 -999 -999 -999 -999
2009-06-11 09:23:00 51°14.462 2°53.981 -999 -999 -999 -999
2009-06-11 09:23:10 51°14.487 2°54.001 -999 -999 -999 -999
2009-06-11 09:23:20 51°14.513 2°54.017 -999 -999 -999 -999
2009-06-11 09:23:30 51°14.539 2°54.03 -999 -999 -999 -999
2009-06-11 09:23:40 51°14.567 2°54.039 -999 -999 -999 -999
2009-06-11 09:23:50 51°14.595 2°54.041 -999 -999 -999 -999
2009-06-11 09:24:00 51°14.623 2°54.04 -999 -999 -999 -999
2009-06-11 09:24:10 51°14.652 2°54.036 -999 -999 -999 -999
2009-06-11 09:24:20 51°14.681 2°54.03 -999 -999 -999 -999
2009-06-11 09:24:30 51°14.709 2°54.023 -999 -999 -999 -999
2009-06-11 09:24:40 51°14.738 2°54.014 -999 -999 -999 -999
2009-06-11 09:24:50 51°14.766 2°54.003 -999 -999 -999 -999
2009-06-11 09:25:00 51°14.794 2°53.988 -999 -999 -999 -999
2009-06-11 09:25:10 51°14.822 2°53.973 -999 -999 -999 -999
2009-06-11 09:25:20 51°14.849 2°53.955 -999 -999 -999 -999
2009-06-11 09:25:30 51°14.873 2°53.941 -999 -999 -999 -999
2009-06-11 09:25:40 51°14.901 2°53.924 -999 -999 -999 -999
2009-06-11 09:25:50 51°14.928 2°53.907 -999 -999 -999 -999
2009-06-11 09:26:00 51°14.955 2°53.89 -999 -999 -999 -999
2009-06-11 09:26:10 51°14.983 2°53.874 -999 -999 -999 -999
2009-06-11 09:26:20 51°15.01 2°53.856 -999 -999 -999 -999
2009-06-11 09:26:30 51°15.038 2°53.84 -999 -999 -999 -999
2009-06-11 09:26:40 51°15.066 2°53.825 -999 -999 -999 -999
2009-06-11 09:26:50 51°15.093 2°53.81 -999 -999 -999 -999
2009-06-11 09:27:00 51°15.121 2°53.795 -999 -999 -999 -999
2009-06-11 09:27:10 51°15.149 2°53.781 -999 -999 -999 -999
2009-06-11 09:27:20 51°15.177 2°53.767 -999 -999 -999 -999
2009-06-11 09:27:30 51°15.204 2°53.753 -999 -999 -999 -999
2009-06-11 09:27:40 51°15.232 2°53.739 -999 -999 -999 -999
2009-06-11 09:27:50 51°15.259 2°53.724 -999 -999 -999 -999
2009-06-11 09:28:00 51°15.287 2°53.71 -999 -999 -999 -999
2009-06-11 09:28:10 51°15.315 2°53.696 -999 -999 -999 -999
2009-06-11 09:28:20 51°15.342 2°53.682 -999 -999 -999 -999
2009-06-11 09:28:30 51°15.369 2°53.668 -999 -999 -999 -999
2009-06-11 09:28:40 51°15.397 2°53.653 -999 -999 -999 -999
2009-06-11 09:28:50 51°15.424 2°53.638 -999 -999 -999 -999
2009-06-11 09:29:00 51°15.451 2°53.624 -999 -999 -999 -999
2009-06-11 09:29:10 51°15.478 2°53.609 -999 -999 -999 -999
2009-06-11 09:29:20 51°15.505 2°53.593 -999 -999 -999 -999
2009-06-11 09:29:30 51°15.532 2°53.576 -999 -999 -999 -999
2009-06-11 09:29:40 51°15.559 2°53.558 -999 -999 -999 -999
2009-06-11 09:29:50 51°15.586 2°53.54 -999 -999 -999 -999
2009-06-11 09:30:00 51°15.613 2°53.522 -999 -999 -999 -999
2009-06-11 09:30:10 51°15.643 2°53.503 -999 -999 -999 -999
2009-06-11 09:30:20 51°15.671 2°53.484 -999 -999 -999 -999
2009-06-11 09:30:30 51°15.698 2°53.467 -999 -999 -999 -999
2009-06-11 09:30:40 51°15.726 2°53.45 -999 -999 -999 -999
2009-06-11 09:30:50 51°15.754 2°53.433 -999 -999 -999 -999
2009-06-11 09:31:00 51°15.781 2°53.415 -999 -999 -999 -999
2009-06-11 09:31:10 51°15.809 2°53.399 -999 -999 -999 -999
2009-06-11 09:31:20 51°15.837 2°53.383 -999 -999 -999 -999
2009-06-11 09:31:30 51°15.865 2°53.367 -999 -999 -999 -999
2009-06-11 09:31:40 51°15.892 2°53.349 -999 -999 -999 -999
2009-06-11 09:31:50 51°15.92 2°53.332 -999 -999 -999 -999
2009-06-11 09:32:00 51°15.948 2°53.315 -999 -999 -999 -999
2009-06-11 09:32:10 51°15.975 2°53.298 -999 -999 -999 -999
2009-06-11 09:32:20 51°16.002 2°53.281 -999 -999 -999 -999
2009-06-11 09:32:30 51°16.029 2°53.264 -999 -999 -999 -999
2009-06-11 09:32:40 51°16.057 2°53.247 -999 -999 -999 -999
2009-06-11 09:32:50 51°16.084 2°53.231 -999 -999 -999 -999
2009-06-11 09:33:00 51°16.112 2°53.213 -999 -999 -999 -999
2009-06-11 09:33:10 51°16.137 2°53.198 -999 -999 -999 -999
2009-06-11 09:33:20 51°16.164 2°53.18 -999 -999 -999 -999
2009-06-11 09:33:30 51°16.191 2°53.162 -999 -999 -999 -999
2009-06-11 09:33:40 51°16.218 2°53.143 -999 -999 -999 -999
2009-06-11 09:33:50 51°16.245 2°53.124 -999 -999 -999 -999
2009-06-11 09:34:00 51°16.272 2°53.105 -999 -999 -999 -999
2009-06-11 09:34:10 51°16.299 2°53.086 -999 -999 -999 -999
2009-06-11 09:34:20 51°16.326 2°53.068 -999 -999 -999 -999
2009-06-11 09:34:30 51°16.353 2°53.05 -999 -999 -999 -999
2009-06-11 09:34:40 51°16.38 2°53.033 -999 -999 -999 -999
2009-06-11 09:34:50 51°16.407 2°53.015 -999 -999 -999 -999
2009-06-11 09:35:00 51°16.434 2°52.998 -999 -999 -999 -999
2009-06-11 09:35:10 51°16.462 2°52.981 -999 -999 -999 -999
2009-06-11 09:35:20 51°16.49 2°52.965 -999 -999 -999 -999
2009-06-11 09:35:30 51°16.517 2°52.947 -999 -999 -999 -999
2009-06-11 09:35:40 51°16.545 2°52.93 -999 -999 -999 -999
2009-06-11 09:35:50 51°16.573 2°52.914 -999 -999 -999 -999
2009-06-11 09:36:00 51°16.603 2°52.895 -999 -999 -999 -999
2009-06-11 09:36:10 51°16.631 2°52.878 -999 -999 -999 -999
2009-06-11 09:36:20 51°16.659 2°52.861 -999 -999 -999 -999
2009-06-11 09:36:30 51°16.686 2°52.843 -999 -999 -999 -999
2009-06-11 09:36:40 51°16.714 2°52.826 -999 -999 -999 -999
2009-06-11 09:36:50 51°16.741 2°52.809 -999 -999 -999 -999
2009-06-11 09:37:00 51°16.768 2°52.792 -999 -999 -999 -999
2009-06-11 09:37:10 51°16.796 2°52.775 -999 -999 -999 -999
2009-06-11 09:37:20 51°16.823 2°52.759 -999 -999 -999 -999
2009-06-11 09:37:30 51°16.85 2°52.742 -999 -999 -999 -999
2009-06-11 09:37:40 51°16.877 2°52.725 -999 -999 -999 -999
2009-06-11 09:37:50 51°16.904 2°52.708 -999 -999 -999 -999
2009-06-11 09:38:00 51°16.931 2°52.691 -999 -999 -999 -999
2009-06-11 09:38:10 51°16.956 2°52.676 -999 -999 -999 -999
2009-06-11 09:38:20 51°16.983 2°52.659 -999 -999 -999 -999
2009-06-11 09:38:30 51°17.01 2°52.644 -999 -999 -999 -999
2009-06-11 09:38:40 51°17.037 2°52.627 -999 -999 -999 -999
2009-06-11 09:38:50 51°17.064 2°52.61 -999 -999 -999 -999
2009-06-11 09:39:00 51°17.091 2°52.594 -999 -999 -999 -999
2009-06-11 09:39:10 51°17.118 2°52.577 -999 -999 -999 -999
2009-06-11 09:39:20 51°17.145 2°52.56 -999 -999 -999 -999
2009-06-11 09:39:30 51°17.172 2°52.543 -999 -999 -999 -999
2009-06-11 09:39:40 51°17.198 2°52.526 -999 -999 -999 -999
2009-06-11 09:39:50 51°17.226 2°52.51 -999 -999 -999 -999
2009-06-11 09:40:00 51°17.253 2°52.494 -999 -999 -999 -999
2009-06-11 09:40:10 51°17.283 2°52.478 -999 -999 -999 -999
2009-06-11 09:40:20 51°17.311 2°52.463 -999 -999 -999 -999
2009-06-11 09:40:30 51°17.339 2°52.448 -999 -999 -999 -999
2009-06-11 09:40:40 51°17.366 2°52.433 -999 -999 -999 -999
2009-06-11 09:40:50 51°17.394 2°52.418 -999 -999 -999 -999
2009-06-11 09:41:00 51°17.422 2°52.403 -999 -999 -999 -999
2009-06-11 09:41:10 51°17.449 2°52.387 -999 -999 -999 -999
2009-06-11 09:41:20 51°17.476 2°52.373 -999 -999 -999 -999
2009-06-11 09:41:30 51°17.503 2°52.359 -999 -999 -999 -999
2009-06-11 09:41:40 51°17.53 2°52.344 -999 -999 -999 -999
2009-06-11 09:41:50 51°17.557 2°52.329 -999 -999 -999 -999
2009-06-11 09:42:00 51°17.584 2°52.314 -999 -999 -999 -999
2009-06-11 09:42:10 51°17.609 2°52.3 -999 -999 -999 -999
2009-06-11 09:42:20 51°17.636 2°52.286 -999 -999 -999 -999
2009-06-11 09:42:30 51°17.664 2°52.27 -999 -999 -999 -999
2009-06-11 09:42:40 51°17.691 2°52.255 -999 -999 -999 -999
2009-06-11 09:42:50 51°17.718 2°52.24 -999 -999 -999 -999
2009-06-11 09:43:00 51°17.746 2°52.224 -999 -999 -999 -999
2009-06-11 09:43:10 51°17.773 2°52.209 -999 -999 -999 -999
2009-06-11 09:43:20 51°17.801 2°52.194 -999 -999 -999 -999
2009-06-11 09:43:30 51°17.828 2°52.179 -999 -999 -999 -999
2009-06-11 09:43:40 51°17.856 2°52.164 -999 -999 -999 -999
2009-06-11 09:43:50 51°17.883 2°52.148 -999 -999 -999 -999
2009-06-11 09:44:00 51°17.911 2°52.133 -999 -999 -999 -999
2009-06-11 09:44:10 51°17.938 2°52.117 -999 -999 -999 -999
2009-06-11 09:44:20 51°17.966 2°52.102 -999 -999 -999 -999
2009-06-11 09:44:30 51°17.993 2°52.087 -999 -999 -999 -999
2009-06-11 09:44:40 51°18.02 2°52.072 -999 -999 -999 -999
2009-06-11 09:44:50 51°18.048 2°52.057 -999 -999 -999 -999
2009-06-11 09:45:00 51°18.075 2°52.041 -999 -999 -999 -999
2009-06-11 09:45:10 51°18.102 2°52.025 -999 -999 -999 -999
2009-06-11 09:45:20 51°18.132 2°52.008 -999 -999 -999 -999
2009-06-11 09:45:30 51°18.16 2°51.993 -999 -999 -999 -999
2009-06-11 09:45:40 51°18.187 2°51.977 -999 -999 -999 -999
2009-06-11 09:45:50 51°18.215 2°51.961 -999 -999 -999 -999
2009-06-11 09:46:00 51°18.243 2°51.945 -999 -999 -999 -999
2009-06-11 09:46:10 51°18.268 2°51.931 -999 -999 -999 -999
2009-06-11 09:46:20 51°18.296 2°51.917 -999 -999 -999 -999
2009-06-11 09:46:30 51°18.323 2°51.9 -999 -999 -999 -999
2009-06-11 09:46:40 51°18.35 2°51.884 -999 -999 -999 -999
2009-06-11 09:46:50 51°18.378 2°51.869 -999 -999 -999 -999
2009-06-11 09:47:00 51°18.405 2°51.853 -999 -999 -999 -999
2009-06-11 09:47:10 51°18.432 2°51.838 -999 -999 -999 -999
2009-06-11 09:47:20 51°18.46 2°51.822 -999 -999 -999 -999
2009-06-11 09:47:30 51°18.487 2°51.807 -999 -999 -999 -999
2009-06-11 09:47:40 51°18.514 2°51.791 -999 -999 -999 -999
2009-06-11 09:47:50 51°18.542 2°51.774 -999 -999 -999 -999
2009-06-11 09:48:00 51°18.568 2°51.759 -999 -999 -999 -999
2009-06-11 09:48:10 51°18.596 2°51.743 -999 -999 -999 -999
2009-06-11 09:48:20 51°18.623 2°51.727 -999 -999 -999 -999
2009-06-11 09:48:30 51°18.65 2°51.711 -999 -999 -999 -999
2009-06-11 09:48:40 51°18.678 2°51.695 -999 -999 -999 -999
2009-06-11 09:48:50 51°18.705 2°51.679 -999 -999 -999 -999
2009-06-11 09:49:00 51°18.732 2°51.663 -999 -999 -999 -999
2009-06-11 09:49:10 51°18.76 2°51.646 -999 -999 -999 -999
2009-06-11 09:49:20 51°18.788 2°51.631 -999 -999 -999 -999
2009-06-11 09:49:30 51°18.815 2°51.615 -999 -999 -999 -999
2009-06-11 09:49:40 51°18.842 2°51.599 -999 -999 -999 -999
2009-06-11 09:49:50 51°18.87 2°51.583 -999 -999 -999 -999
2009-06-11 09:50:00 51°18.897 2°51.567 -999 -999 -999 -999
2009-06-11 09:50:10 51°18.927 2°51.548 -999 -999 -999 -999
2009-06-11 09:50:20 51°18.954 2°51.532 -999 -999 -999 -999
2009-06-11 09:50:30 51°18.979 2°51.518 -999 -999 -999 -999
2009-06-11 09:50:40 51°19.01 2°51.501 -999 -999 -999 -999
2009-06-11 09:50:50 51°19.035 2°51.488 -999 -999 -999 -999
2009-06-11 09:51:00 51°19.065 2°51.474 -999 -999 -999 -999
2009-06-11 09:51:10 51°19.094 2°51.46 -999 -999 -999 -999
2009-06-11 09:51:20 51°19.122 2°51.447 -999 -999 -999 -999
2009-06-11 09:51:30 51°19.15 2°51.433 -999 -999 -999 -999
2009-06-11 09:51:40 51°19.178 2°51.419 -999 -999 -999 -999
2009-06-11 09:51:50 51°19.206 2°51.406 -999 -999 -999 -999
2009-06-11 09:52:00 51°19.234 2°51.393 -999 -999 -999 -999
2009-06-11 09:52:10 51°19.262 2°51.381 -999 -999 -999 -999
2009-06-11 09:52:20 51°19.29 2°51.368 -999 -999 -999 -999
2009-06-11 09:52:30 51°19.318 2°51.356 -999 -999 -999 -999
2009-06-11 09:52:40 51°19.345 2°51.343 -999 -999 -999 -999
2009-06-11 09:52:50 51°19.373 2°51.329 -999 -999 -999 -999
2009-06-11 09:53:00 51°19.401 2°51.316 -999 -999 -999 -999
2009-06-11 09:53:10 51°19.429 2°51.304 -999 -999 -999 -999
2009-06-11 09:53:20 51°19.456 2°51.29 -999 -999 -999 -999
2009-06-11 09:53:30 51°19.484 2°51.276 -999 -999 -999 -999
2009-06-11 09:53:40 51°19.512 2°51.263 -999 -999 -999 -999
2009-06-11 09:53:50 51°19.54 2°51.249 -999 -999 -999 -999
2009-06-11 09:54:00 51°19.568 2°51.235 -999 -999 -999 -999
2009-06-11 09:54:10 51°19.593 2°51.223 -999 -999 -999 -999
2009-06-11 09:54:20 51°19.621 2°51.21 -999 -999 -999 -999
2009-06-11 09:54:30 51°19.649 2°51.197 -999 -999 -999 -999
2009-06-11 09:54:40 51°19.676 2°51.183 -999 -999 -999 -999
2009-06-11 09:54:50 51°19.704 2°51.17 -999 -999 -999 -999
2009-06-11 09:55:00 51°19.732 2°51.157 -999 -999 -999 -999
2009-06-11 09:55:10 51°19.759 2°51.143 -999 -999 -999 -999
2009-06-11 09:55:20 51°19.787 2°51.132 -999 -999 -999 -999
2009-06-11 09:55:30 51°19.815 2°51.118 -999 -999 -999 -999
2009-06-11 09:55:40 51°19.842 2°51.106 -999 -999 -999 -999
2009-06-11 09:55:50 51°19.87 2°51.093 -999 -999 -999 -999
2009-06-11 09:56:00 51°19.898 2°51.08 -999 -999 -999 -999
2009-06-11 09:56:10 51°19.926 2°51.067 -999 -999 -999 -999
2009-06-11 09:56:20 51°19.954 2°51.054 -999 -999 -999 -999
2009-06-11 09:56:30 51°19.982 2°51.041 -999 -999 -999 -999
2009-06-11 09:56:40 51°20.01 2°51.027 -999 -999 -999 -999
2009-06-11 09:56:50 51°20.038 2°51.013 -999 -999 -999 -999
2009-06-11 09:57:00 51°20.066 2°50.999 -999 -999 -999 -999
2009-06-11 09:57:10 51°20.094 2°50.985 -999 -999 -999 -999
2009-06-11 09:57:20 51°20.122 2°50.972 -999 -999 -999 -999
2009-06-11 09:57:30 51°20.15 2°50.959 -999 -999 -999 -999
2009-06-11 09:57:40 51°20.178 2°50.946 -999 -999 -999 -999
2009-06-11 09:57:50 51°20.207 2°50.933 -999 -999 -999 -999
2009-06-11 09:58:00 51°20.235 2°50.92 -999 -999 -999 -999
2009-06-11 09:58:10 51°20.264 2°50.906 -999 -999 -999 -999
2009-06-11 09:58:20 51°20.292 2°50.892 -999 -999 -999 -999
2009-06-11 09:58:30 51°20.32 2°50.878 -999 -999 -999 -999
2009-06-11 09:58:40 51°20.348 2°50.864 -999 -999 -999 -999
2009-06-11 09:58:50 51°20.375 2°50.85 -999 -999 -999 -999
2009-06-11 09:59:00 51°20.403 2°50.836 -999 -999 -999 -999
2009-06-11 09:59:10 51°20.434 2°50.82 -999 -999 -999 -999
2009-06-11 09:59:20 51°20.462 2°50.805 -999 -999 -999 -999
2009-06-11 09:59:30 51°20.49 2°50.791 -999 -999 -999 -999
2009-06-11 09:59:40 51°20.519 2°50.776 -999 -999 -999 -999
2009-06-11 09:59:50 51°20.547 2°50.762 -999 -999 -999 -999
2009-06-11 10:00:00 51°20.576 2°50.749 -999 -999 -999 -999
2009-06-11 10:00:10 51°20.604 2°50.736 -999 -999 -999 -999
2009-06-11 10:00:20 51°20.632 2°50.721 -999 -999 -999 -999
2009-06-11 10:00:30 51°20.66 2°50.708 -999 -999 -999 -999
2009-06-11 10:00:40 51°20.688 2°50.694 -999 -999 -999 -999
2009-06-11 10:00:50 51°20.715 2°50.68 -999 -999 -999 -999
2009-06-11 10:01:00 51°20.744 2°50.665 -999 -999 -999 -999
2009-06-11 10:01:10 51°20.772 2°50.65 -999 -999 -999 -999
2009-06-11 10:01:20 51°20.8 2°50.637 -999 -999 -999 -999
2009-06-11 10:01:30 51°20.829 2°50.621 -999 -999 -999 -999
2009-06-11 10:01:40 51°20.857 2°50.606 -999 -999 -999 -999
2009-06-11 10:01:50 51°20.886 2°50.591 -999 -999 -999 -999
2009-06-11 10:02:00 51°20.914 2°50.577 -999 -999 -999 -999
2009-06-11 10:02:10 51°20.939 2°50.565 -999 -999 -999 -999
2009-06-11 10:02:20 51°20.967 2°50.55 -999 -999 -999 -999
2009-06-11 10:02:30 51°20.996 2°50.536 -999 -999 -999 -999
2009-06-11 10:02:40 51°21.024 2°50.522 -999 -999 -999 -999
2009-06-11 10:02:50 51°21.053 2°50.508 -999 -999 -999 -999
2009-06-11 10:03:00 51°21.081 2°50.494 -999 -999 -999 -999
2009-06-11 10:03:10 51°21.11 2°50.481 -999 -999 -999 -999
2009-06-11 10:03:20 51°21.138 2°50.467 -999 -999 -999 -999
2009-06-11 10:03:30 51°21.167 2°50.454 -999 -999 -999 -999
2009-06-11 10:03:40 51°21.196 2°50.44 -999 -999 -999 -999
2009-06-11 10:03:50 51°21.225 2°50.427 -999 -999 -999 -999
2009-06-11 10:04:00 51°21.253 2°50.413 -999 -999 -999 -999
2009-06-11 10:04:10 51°21.282 2°50.4 -999 -999 -999 -999
2009-06-11 10:04:20 51°21.31 2°50.387 -999 -999 -999 -999
2009-06-11 10:04:30 51°21.339 2°50.373 -999 -999 -999 -999
2009-06-11 10:04:40 51°21.367 2°50.359 -999 -999 -999 -999
2009-06-11 10:04:50 51°21.396 2°50.344 -999 -999 -999 -999
2009-06-11 10:05:00 51°21.425 2°50.33 -999 -999 -999 -999
2009-06-11 10:05:10 51°21.453 2°50.317 -999 -999 -999 -999
2009-06-11 10:05:20 51°21.484 2°50.301 -999 -999 -999 -999
2009-06-11 10:05:30 51°21.51 2°50.29 -999 -999 -999 -999
2009-06-11 10:05:40 51°21.541 2°50.276 -999 -999 -999 -999
2009-06-11 10:05:50 51°21.567 2°50.264 -999 -999 -999 -999
2009-06-11 10:06:00 51°21.599 2°50.249 -999 -999 -999 -999
2009-06-11 10:06:10 51°21.627 2°50.237 -999 -999 -999 -999
2009-06-11 10:06:20 51°21.653 2°50.224 -999 -999 -999 -999
2009-06-11 10:06:30 51°21.682 2°50.21 -999 -999 -999 -999
2009-06-11 10:06:40 51°21.711 2°50.197 -999 -999 -999 -999
2009-06-11 10:06:50 51°21.739 2°50.184 -999 -999 -999 -999
2009-06-11 10:07:00 51°21.766 2°50.17 -999 -999 -999 -999
2009-06-11 10:07:10 51°21.794 2°50.157 -999 -999 -999 -999
2009-06-11 10:07:20 51°21.822 2°50.143 -999 -999 -999 -999
2009-06-11 10:07:30 51°21.85 2°50.128 -999 -999 -999 -999
2009-06-11 10:07:40 51°21.878 2°50.114 -999 -999 -999 -999
2009-06-11 10:07:50 51°21.906 2°50.101 -999 -999 -999 -999
2009-06-11 10:08:00 51°21.934 2°50.087 -999 -999 -999 -999
2009-06-11 10:08:10 51°21.965 2°50.073 -999 -999 -999 -999
2009-06-11 10:08:20 51°21.993 2°50.058 -999 -999 -999 -999
2009-06-11 10:08:30 51°22.022 2°50.045 -999 -999 -999 -999
2009-06-11 10:08:40 51°22.05 2°50.031 -999 -999 -999 -999
2009-06-11 10:08:50 51°22.078 2°50.017 -999 -999 -999 -999
2009-06-11 10:09:00 51°22.107 2°50.003 -999 -999 -999 -999
2009-06-11 10:09:10 51°22.135 2°49.989 -999 -999 -999 -999
2009-06-11 10:09:20 51°22.164 2°49.974 -999 -999 -999 -999
2009-06-11 10:09:30 51°22.192 2°49.962 -999 -999 -999 -999
2009-06-11 10:09:40 51°22.22 2°49.949 -999 -999 -999 -999
2009-06-11 10:09:50 51°22.248 2°49.935 -999 -999 -999 -999
2009-06-11 10:10:00 51°22.276 2°49.922 -999 -999 -999 -999
2009-06-11 10:10:10 51°22.305 2°49.908 -999 -999 -999 -999
2009-06-11 10:10:20 51°22.333 2°49.894 -999 -999 -999 -999
2009-06-11 10:10:30 51°22.362 2°49.882 -999 -999 -999 -999
2009-06-11 10:10:40 51°22.39 2°49.869 -999 -999 -999 -999
2009-06-11 10:10:50 51°22.419 2°49.857 -999 -999 -999 -999
2009-06-11 10:11:00 51°22.447 2°49.844 -999 -999 -999 -999
2009-06-11 10:11:10 51°22.473 2°49.832 -999 -999 -999 -999
2009-06-11 10:11:20 51°22.501 2°49.819 -999 -999 -999 -999
2009-06-11 10:11:30 51°22.529 2°49.806 -999 -999 -999 -999
2009-06-11 10:11:40 51°22.558 2°49.793 -999 -999 -999 -999
2009-06-11 10:11:50 51°22.587 2°49.78 -999 -999 -999 -999
2009-06-11 10:12:00 51°22.615 2°49.768 -999 -999 -999 -999
2009-06-11 10:12:10 51°22.643 2°49.755 -999 -999 -999 -999
2009-06-11 10:12:20 51°22.671 2°49.743 -999 -999 -999 -999
2009-06-11 10:12:30 51°22.699 2°49.729 -999 -999 -999 -999
2009-06-11 10:12:40 51°22.727 2°49.716 -999 -999 -999 -999
2009-06-11 10:12:50 51°22.755 2°49.704 -999 -999 -999 -999
2009-06-11 10:13:00 51°22.784 2°49.692 -999 -999 -999 -999
2009-06-11 10:13:10 51°22.811 2°49.679 -999 -999 -999 -999
2009-06-11 10:13:20 51°22.839 2°49.666 -999 -999 -999 -999
2009-06-11 10:13:30 51°22.867 2°49.654 -999 -999 -999 -999
2009-06-11 10:13:40 51°22.895 2°49.641 -999 -999 -999 -999
2009-06-11 10:13:50 51°22.923 2°49.629 -999 -999 -999 -999
2009-06-11 10:14:00 51°22.951 2°49.615 -999 -999 -999 -999
2009-06-11 10:14:10 51°22.978 2°49.599 -999 -999 -999 -999
2009-06-11 10:14:20 51°23.006 2°49.583 -999 -999 -999 -999
2009-06-11 10:14:30 51°23.032 2°49.566 -999 -999 -999 -999
2009-06-11 10:14:40 51°23.059 2°49.55 -999 -999 -999 -999
2009-06-11 10:14:50 51°23.086 2°49.533 -999 -999 -999 -999
2009-06-11 10:15:00 51°23.113 2°49.516 -999 -999 -999 -999
2009-06-11 10:15:10 51°23.142 2°49.498 -999 -999 -999 -999
2009-06-11 10:15:20 51°23.169 2°49.481 -999 -999 -999 -999
2009-06-11 10:15:30 51°23.196 2°49.465 -999 -999 -999 -999
2009-06-11 10:15:40 51°23.22 2°49.449 -999 -999 -999 -999
2009-06-11 10:15:50 51°23.247 2°49.433 -999 -999 -999 -999
2009-06-11 10:16:00 51°23.277 2°49.414 -999 -999 -999 -999
2009-06-11 10:16:10 51°23.301 2°49.4 -999 -999 -999 -999
2009-06-11 10:16:20 51°23.329 2°49.382 -999 -999 -999 -999
2009-06-11 10:16:30 51°23.356 2°49.365 -999 -999 -999 -999
2009-06-11 10:16:40 51°23.386 2°49.347 -999 -999 -999 -999
2009-06-11 10:16:50 51°23.411 2°49.332 -999 -999 -999 -999
2009-06-11 10:17:00 51°23.441 2°49.313 -999 -999 -999 -999
2009-06-11 10:17:10 51°23.468 2°49.297 -999 -999 -999 -999
2009-06-11 10:17:20 51°23.493 2°49.28 -999 -999 -999 -999
2009-06-11 10:17:30 51°23.521 2°49.263 -999 -999 -999 -999
2009-06-11 10:17:40 51°23.548 2°49.247 -999 -999 -999 -999
2009-06-11 10:17:50 51°23.575 2°49.231 -999 -999 -999 -999
2009-06-11 10:18:00 51°23.603 2°49.213 -999 -999 -999 -999
2009-06-11 10:18:10 51°23.63 2°49.197 -999 -999 -999 -999
2009-06-11 10:18:20 51°23.658 2°49.179 -999 -999 -999 -999
2009-06-11 10:18:30 51°23.685 2°49.16 -999 -999 -999 -999
2009-06-11 10:18:40 51°23.712 2°49.141 -999 -999 -999 -999
2009-06-11 10:18:50 51°23.739 2°49.123 -999 -999 -999 -999
2009-06-11 10:19:00 51°23.767 2°49.104 -999 -999 -999 -999
2009-06-11 10:19:10 51°23.794 2°49.087 -999 -999 -999 -999
2009-06-11 10:19:20 51°23.822 2°49.069 -999 -999 -999 -999
2009-06-11 10:19:30 51°23.85 2°49.052 -999 -999 -999 -999
2009-06-11 10:19:40 51°23.877 2°49.035 -999 -999 -999 -999
2009-06-11 10:19:50 51°23.905 2°49.019 -999 -999 -999 -999
2009-06-11 10:20:00 51°23.932 2°49 -999 -999 -999 -999
2009-06-11 10:20:10 51°23.962 2°48.979 -999 -999 -999 -999
2009-06-11 10:20:20 51°23.989 2°48.961 -999 -999 -999 -999
2009-06-11 10:20:30 51°24.016 2°48.944 -999 -999 -999 -999
2009-06-11 10:20:40 51°24.044 2°48.926 -999 -999 -999 -999
2009-06-11 10:20:50 51°24.071 2°48.908 -999 -999 -999 -999
2009-06-11 10:21:00 51°24.099 2°48.89 -999 -999 -999 -999
2009-06-11 10:21:10 51°24.127 2°48.872 -999 -999 -999 -999
2009-06-11 10:21:20 51°24.154 2°48.854 -999 -999 -999 -999
2009-06-11 10:21:30 51°24.182 2°48.835 -999 -999 -999 -999
2009-06-11 10:21:40 51°24.21 2°48.818 -999 -999 -999 -999
2009-06-11 10:21:50 51°24.238 2°48.801 -999 -999 -999 -999
2009-06-11 10:22:00 51°24.266 2°48.784 -999 -999 -999 -999
2009-06-11 10:22:10 51°24.291 2°48.77 -999 -999 -999 -999
2009-06-11 10:22:20 51°24.319 2°48.754 -999 -999 -999 -999
2009-06-11 10:22:30 51°24.347 2°48.739 -999 -999 -999 -999
2009-06-11 10:22:40 51°24.375 2°48.724 -999 -999 -999 -999
2009-06-11 10:22:50 51°24.404 2°48.708 -999 -999 -999 -999
2009-06-11 10:23:00 51°24.432 2°48.692 -999 -999 -999 -999
2009-06-11 10:23:10 51°24.46 2°48.678 -999 -999 -999 -999
2009-06-11 10:23:20 51°24.488 2°48.663 -999 -999 -999 -999
2009-06-11 10:23:30 51°24.516 2°48.648 -999 -999 -999 -999
2009-06-11 10:23:40 51°24.544 2°48.633 -999 -999 -999 -999
2009-06-11 10:23:50 51°24.573 2°48.62 -999 -999 -999 -999
2009-06-11 10:24:00 51°24.601 2°48.605 -999 -999 -999 -999
2009-06-11 10:24:10 51°24.629 2°48.589 -999 -999 -999 -999
2009-06-11 10:24:20 51°24.658 2°48.573 -999 -999 -999 -999
2009-06-11 10:24:30 51°24.686 2°48.558 -999 -999 -999 -999
2009-06-11 10:24:40 51°24.714 2°48.542 -999 -999 -999 -999
2009-06-11 10:24:50 51°24.742 2°48.526 -999 -999 -999 -999
2009-06-11 10:25:00 51°24.771 2°48.512 -999 -999 -999 -999
2009-06-11 10:25:10 51°24.799 2°48.497 -999 -999 -999 -999
2009-06-11 10:25:20 51°24.827 2°48.482 -999 -999 -999 -999
2009-06-11 10:25:30 51°24.855 2°48.466 -999 -999 -999 -999
2009-06-11 10:25:40 51°24.879 2°48.452 -999 -999 -999 -999
2009-06-11 10:25:50 51°24.898 2°48.44 -999 -999 -999 -999
2009-06-11 10:26:00 51°24.915 2°48.428 -999 -999 -999 -999
2009-06-11 10:26:10 51°24.929 2°48.412 -999 -999 -999 -999
2009-06-11 10:26:20 51°24.939 2°48.395 -999 -999 -999 -999
2009-06-11 10:26:30 51°24.946 2°48.377 -999 -999 -999 -999
2009-06-11 10:26:40 51°24.952 2°48.36 -999 -999 -999 -999